Location: Casteau
(50.5142°N, 4.0161°E)
Time: 19:26:30
(UTC+00:00)

Tiros 1 - Pass Details

Date: 04 August 2021
Orbit: 630 x 663 km, 48.4° (Epoch: 28 September)

Event Time Altitude Azimuth Distance (km) Brightness Sun altitude
Rises 17:38:05 0° 240° (WSW) 2,984 11.4 14.9°
Reaches altitude 10° 17:40:29 10° 236° (SW) 2,071 10.6 14.6°
Maximum altitude 17:45:06 50° 161° (SSE) 839 7.7 13.8°
Drops below altitude 10° 17:49:41 10° 87° (E) 2,059 9.2 13.1°
Sets 17:52:04 0° 82° (E) 2,965 10.0 12.7°
